Location: Asheville, NC
(35.6000°N, 82.5500°W)
Time: 03:05:32
(UTC-04:00)

Vanguard 3 - Pass Details

Date: 13 March 2018
Orbit: 508 x 3264 km, 33.3° (Epoch: 19 June)

Event Time Altitude Azimuth Distance (km) Brightness Sun altitude
Rises 05:21:44 0° 176° (S) 6,650 11.7 -29.3°
Reaches altitude 10° 05:30:54 10° 151° (SSE) 6,054 11.7 -27.5°
Maximum altitude 05:37:14 12° 132° (SE) 5,972 11.9 -26.3°
Drops below altitude 10° 05:43:37 10° 112° (ESE) 6,177 12.3 -25.0°
Sets 05:52:59 0° 89° (E) 6,942 13.2 -23.2°
